Погода Жамбейты

Погода Жамбейты : погода сейчас, прогноз погоды и архив. Всё, что Вы хотите узнать о погоде Жамбейты!

Хотите узнать прогноз погоды Жамбейты? Тогда Вам сюда: Погода Жамбейты

Поиск расширенной информации на нашем сайте:

Полезная информация: Фантастика, мистика, ужасы, лучшие драмы смотреть онлайн без регистрации

Другие новости

Новости СМИ2

Главная страница сайта

Новости сайта

03.07.2017

Напоминаем, что на нашем специализированном сайте Метеоцентр.Азия вы можете получить высокодетализированные автоматические прогнозы погоды по пунктам России, СНГ и мира в авиационном формате (включающие направление и скорость ветра, видимость, явления погоды, количество и форму облачности, нижнюю и верхнюю границу облачности).

Рекомендуем: печать на баннере, оригинальная печать на баннере

Погода Жамбейты - сегодня

Время (UTC), дата Ветер
(°,м/с) 
Видим.   Явления Облачность Т
(°С)
Тd
(°С)
f(%) Тe
(°С)
Pmin
(гПа)
dP
(гПа)
Po
(мм)
O2
(г/м3)
Тmin Tmax R s Состояние
почвы
06 10.12.17 240 (ЮЗ) 20000 м    10/10 600 м 
[Sc]
-5.3 -7.1 87 -8  1026.9  0.9  767  316  -7.4         
09 10.12.17 250 (З) 20000 м    10/10 600 м 
[Sc]
-4.6 -6.2 89 -8  1027.5  0.6  768  315           
12 10.12.17 200 (Ю) 20000 м    9/9 600 м 
[Sc]
-4.8 -6.9 85 -6  1027.7  0.2  768  316           
15 10.12.17 180 (Ю) н/о    10/10 600 м 
[Sc]
-5.6 -7.1 89 -7  1028.6  0.8  768  317    -4.3       
18 10.12.17 140 (ЮВ) н/о    9/9 600 м 
[Sc]
-9.5 -10.7 91 -12  1028.7  0.1  768  322    -4.3       
21 10.12.17 140 (ЮВ) н/о    10/10 600 м 
[Sc]
-6.8 -8.1 90 -8  1029.2  0.5  769  319           
00 11.12.17 130 (ЮВ) н/о    10/10 600 м 
[Sc]
-5.8 -7.3 89 -7  1029.3  0.1  769  317           
03 11.12.17 140 (ЮВ) н/о    10/10 600 м 
[Sc]
-5.4 -7.2 87 -7  1029.4  0.1  769  317  -9.5      равномерный
сухой снег
100% 
06 11.12.17 140 (ЮВ) 20000 м    6/5 600 м средняя 
[Sc|Ac trans]
-5.2 -7.3 85 -8  1030.5  1.1  770  317  -9.5         
09 11.12.17 160 (Ю) 20000 м    9/9 600 м 
[Sc]
-4.1 -6.8 81 -7  1031.4  771  316           
12 11.12.17 140 (ЮВ) 20000 м    6/6 600 м 
[Sc]
-4.9 -7.4 83 -7  1031.3  -0.2  770  317           
15 11.12.17 140 (ЮВ) н/о    3/3 600 м 
[Sc]
-9 -10.6 88 -13  1031.7  0.4  771  322    -3.4       
18 11.12.17 150 (ЮВ) н/о    9/9 600 м 
[Sc]
-9 -10.1 92 -14  1032.5  0.8  771  322    -3.4       
21 11.12.17 140 (ЮВ) н/о    10/10 600 м 
[Sc]
-6.8 -7.7 93 -9  1032  -0.5  771  319           
00 12.12.17 140 (ЮВ) н/о    10/10 600 м 
[Sc]
-5.5 -6.9 90 -9  1031.6  -0.4  771  318           
03 12.12.17 130 (ЮВ) н/о  слаб. снег  10/10 600 м 
[Sc]
-5.7 -6.8 92 -10  1030.9  -0.7  770  318        равномерный
сухой снег
100% 
06 12.12.17 140 (ЮВ) 20000 м  в посл. час снег  10/10 600 м 
[Sc]
-5.6 -6.7 92 -10  1031.3  0.4  770  318  -9.1    0.2     
09 12.12.17 140 (ЮВ) 20000 м  в посл. час снег  10/10 600 м 
[Sc]
-5.3 -6.3 93 -10  1031.4  0.1  770  317           
12 12.12.17 120 (ЮВ) 1000 м  снег  10/10 300 м 
[Ns]
-5.2 -6.2 93 -10  1031.4  770  317           
15 12.12.17 130 (ЮВ) н/о  снег  10/10 300 м 
[Ns]
-5 -6 93 -10  1032.2  0.8  771  317    -4.8     
18 12.12.17 140 (ЮВ) н/о  снег  10/10 300 м 
[Ns]
-4.8 -5.8 93 -9  1032.3  0.1  771  317    -0.4     
21 12.12.17 140 (ЮВ) н/о  снег  10/10 300 м 
[Ns]
-4.9 -5.9 93 -9  1032.7  0.4  771  317           
00 13.12.17 140 (ЮВ) н/о  позёмок{снег}  10/10 300 м 
[Ns]
-5.8 -6.9 92 -10  1033.1  0.4  772  319           
03 13.12.17 140 (ЮВ) н/о  позёмок  10/10 300 м 
[Ns]
-7.3 -9.5 84 -12  1032.9  -0.2  772  320        13  равномерный
сухой снег
100% 
06 13.12.17 130 (ЮВ) 20000 м  позёмок  10/10 300 м 
[Ns]
-6.5 -8.9 83 -12  1033.6  0.7  772  320  -7.6    0.7     
Время (UTC), дата Ветер
(°,м/с) 
Видим.   Явления Облачность Т
(°С)
Тd
(°С)
f(%) Тe
(°С)
Pmin
(гПа)
dP
(гПа)
Po
(мм)
O2
(г/м3)
Тmin Tmax R s Состояние
почвы

Для получения пояснительной информации подведите курсор к названию столбца.

ПОГОДА Жамбейты - архив

Всё, что Вы хотите узнать о погоде Жамбейты - удобно и подробно!

Выберите нужную дату (начиная с 1 января 2015* года) и нажмите кнопку "Найти".
Будут отображены архивные сводки погоды по пункту Жамбейты, начиная с указанной даты.


Отображать данные в формате CSV (для использования в таблицах Excel)


Внимание! Наш архив погоды предназначен исключительно для личного некоммерческого использования в познавательных целях. Если Вам необходимы официальные справки о состоянии погоды (для производственных, юридических, коммерческих и т.п. целей), обращайтесь в органы Росгидромета.

*Примечание: данная дата относится к архиву по метеостанциям СССР (Россия, СНГ, Балтия).
Архив по метеостанциям Зарубежной Европы и Азии (кроме Китая) хранится 10 дней, по другим регионам земного шара (Китай, Африка, Америка, Австралия, Океания) - 1 день.

Жамбейты - район местоположения метеостанции


Название, широта, долгота, высота метеостанции:
Жамбейты 50.2°ш. 52.6°д. 32 м над ур. моря [Казахстан]

Дополнительная информация

В oтличие oт бoльшинства пoгoдных сайтoв мы публикуем пoдрoбную метеoинфoрмацию в детальнoм прoфессиoнальнoм фoрмате.

Характеристики температуры и влажнoсти вoздуха измеряются на высoте 2 м в тени вдали oт зданий и деревьев.
Скoрoсть ветра измеряется на высoте 10 м (на урoвне рoста челoвека скoрoсть ветра ниже в 1.5-2 раза). Если метеoстанция нахoдится в гoрoде или в лесу, тo скoрoсть ветра занижена на 2-4 м/с пo сравнению с oткрытым местoм. Скoрoсть ветра над акватoриями крупных рек и oзёр, а также на вершинах хoлмoв на 2-5 м/с выше, чем в oбычных услoвиях.
Атмoсфернoе давление в разных тoчках местнoсти мoжет значительнo oтличаться oт давления на метеoстанции, в зависимoсти oт услoвий рельефа (при пoдъёме на 10 м давление пoнижается примернo на 1 мм рт.ст.).